Погода в Ауки

Соломоновы острова     8°46′18″S   160°41′54″E
темп.,
°C
ветер,
м/с
пор.,
м/с
влажн.,
%
обл.,
%
осадки,
мм/ч
давл.,
гПа
погр.,
м
26 января, вт
вт2623:00+24сз238332 0.0 1007351
02:00+24сз228454 0.0 1005316
05:00+24сз238876 0.1 1004326
08:00+27сз247594 0.0 1006670
11:00+29з346393 0.0 10061040
14:00+29з3462100 0.0 10041036
17:00+28зсз3567100 0.0 1003935
20:00+25ссз2284100 0.0 1005326
27 января, ср
ср2723:00+25сз368974 0.1 1006424
02:00+25сз368692 0.1 1004493
05:00+25сз378896 0.3 1003506
08:00+26сз4886100 0.5 1006742
11:00+28сз698297 3.1 1005910
14:00+27зсз5884100 5.1 1003892
17:00+26сз5886100 9.9 1003767
20:00+25зсз3590100 4.5 1005386
28 января, чт
чт2823:00+25ссз3590100 4.9 1005398
02:00+25сз379162 1.1 1003505
05:00+25зсз489073 6.4 1003522
08:00+25зсз5894100 6.4 1005673
11:00+25зсз4893100 10.4 1005710
14:00+26сз4790100 1.7 1003683
17:00+25зсз4992100 5.0 1002701
20:00+25сз5992100 0.6 1004668
29 января, пт
пт2923:00+25сз4892100 1.5 1005600
02:00+25зсз4892100 2.2 1002503
05:00+25сз4890100 5.9 1002527
08:00+25зсз4791100 4.2 1004552
11:00+27сз5989100 8.9 1005869
14:00+26сз6109098 8.6 1003984
17:00+25зсз5109399 18.3 1002790
20:00+25сз71294100 5.9 1004861
30 января, сб
сб3023:00+24сз61192100 7.1 1005786
02:00+24ссз51094100 0.6 1003646
05:00+24с3993100 0.6 1003586
08:00+25ссз4993100 3.4 1005649
11:00+25ссз4992100 14.6 1005864
14:00+24ссз3895100 8.9 1003591
17:00+24сз5895100 22.6 1004741
20:00+24ссз2395100 3.9 1005243